Skip Page Navigation
NASA JPL Caltech
NASA Logo - Jet Propulsion Laboratory + View the NASA Portal
+ Center for Near-Earth Object Studies
JPL Home Earth Solar System Stars & Galaxies Technology
JPL Solar System Dynamics
BODIES ORBITS EPHEMERIDES TOOLS PHYSICAL DATA DISCOVERY FAQ SITE MAP
IMPORTANT: The SSD Announcement email list is now available. Major changes are coming in the near future, including possible hostname and/or URL changes. To be notified of such changes, subscribe to this email list.

Please visit this page for more details.


JPL Small-Body Database Browser
Search: [ help ]  
295831 (2008 UK367)
Classification: Main-belt Asteroid          SPK-ID: 2295831
Ephemeris | Orbit Diagram | Orbital Elements | Mission Design | Physical Parameters | Discovery Circumstances ]

[ show orbit diagram ]
Orbital Elements at Epoch 2458600.5 (2019-Apr-27.0) TDB
Reference: JPL 12 (heliocentric ecliptic J2000)
 Element Value Uncertainty (1-sigma)   Units 
e .1153737926311955 8.2332e-08  
a 3.159869780303924 4.758e-08 au
q 2.795303619529558 2.6462e-07 au
i 10.03821955544518 5.9392e-06 deg
node 102.8247696218723 4.9572e-05 deg
peri 272.6707969569936 5.6502e-05 deg
M 331.7575395718696 2.5902e-05 deg
tp 2458761.454170155084
(2019-Oct-04.95417015)
0.00014699 TDB
period 2051.644947977569
5.62
4.6339e-05
1.269e-07
d
yr
n .1754689574114049 3.9632e-09 deg/d
Q 3.52443594107829 5.3069e-08 au
  Orbit Determination Parameters
   # obs. used (total)      130  
   data-arc span      5786 days (15.84 yr)  
   first obs. used      2003-12-28  
   last obs. used      2019-10-31  
   planetary ephem.      DE431  
   SB-pert. ephem.      SB431-N16  
   condition code      0  
   norm. resid. RMS      .60528  
   source      ORB  
   producer      Otto Matic  
   solution date      2019-Nov-08 07:03:29  

Additional Information
 Earth MOID = 1.81927 au 
 Jupiter MOID = 2.02122 au 
 T_jup = 3.171 
[ show covariance matrix ]

Ephemeris | Orbit Diagram | Orbital Elements | Mission Design | Physical Parameters | Discovery Circumstances ]

Physical Parameter Table
Parameter Symbol Value Units Sigma Reference Notes
absolute magnitude H 15.9   n/a MPO368028  

295831 (2008 UK367)          Discovered 2008-Oct-24 by LINEAR at Socorro
Reference: 20110912/Numbers.arcLast Updated: 2011-09-14

Alternate Designations
 2008 UK367 = 2007 ML25 
Ephemeris | Orbit Diagram | Orbital Elements | Mission Design | Physical Parameters | Discovery Circumstances ]
ABOUT SSD CREDITS/AWARDS PRIVACY/COPYRIGHT GLOSSARY LINKS
FirstGov
(server date/time)  
NASA Home Page
Site Manager:   Ryan S. Park
Webmaster  Alan B. Chamberlin